Weather History for KMYL - October, 2012

Change the Weather History Date:

Saturday, October 6, 2012

  Actual Average Record
Temperature  
Mean Temperature 36 °F 43 °F  
Max Temperature 54 °F 60 °F 79 °F (1979)
Min Temperature 17 °F 26 °F 12 °F (1974)
Degree Days  
Heating Degree Days 29 22  
Month to date heating degree days 127 127  
Since 1 July heating degree days 451 892  
Cooling Degree Days 0 0  
Month to date cooling degree days 0 0  
Year to date cooling degree days 172 25  
Moisture  
Dew Point 13 °F    
Average Humidity 45    
Maximum Humidity 73    
Minimum Humidity 16    
Precipitation  
Precipitation 0.00 in 0.03 in 0.50 in (1949)
Month to date precipitation 0.00 0.20  
Year to date precipitation 18.31 14.12  
Sea Level Pressure  
Sea Level Pressure 30.27 in    
Wind  
Wind Speed 3 mph (NW)    
Max Wind Speed 13 mph    
Max Gust Speed 17 mph    
Visibility 8 miles    
Events      
T = Trace of Precipitation, MM = Missing Value Source: NWS Daily Summary

Daily Weather History Graph

Daily Weather History Graph

Search for Another Location

Airport or City:

Trip Planner

Search our weather history database for the weather conditions in past years. The results will help you decide how hot, cold, wet, or windy it might be!

Date:

Astronomy

Oct. 06, 2012 Rise Set
Actual Time 7:49 AM MDT 7:14 PM MDT
Civil Twilight 7:20 AM MDT 7:43 PM MDT
Nautical Twilight 6:46 AM MDT 8:17 PM MDT
Astronomical Twilight 6:11 AM MDT 8:51 PM MDT
Moon 11:22 PM MDT (10/6) 1:58 PM MDT (10/6)
Length of Visible Light 12h 23m
Length of Day
11h 25m
Waning Gibbous, 65% of the Moon is Illuminated
Oct 6
Waning Gibbous
Oct 8
Last Quarter
Oct 15
New
Oct 21
First Quarter
Oct 29
Full

Hourly Weather History & Observations

Time (MDT) Temp. Windchill Dew Point Humidity Pressure Visibility Wind Dir Wind Speed Gust Speed Precip Events Conditions
12:51 AM 27.0 °F 21.6 °F 18.0 °F 69% 30.28 in 9.0 mi NNW 4.6 mph - N/A   Clear
1:51 AM 35.1 °F 31.0 °F 16.0 °F 46% 30.24 in 7.0 mi North 4.6 mph - N/A   Clear
2:51 AM 26.1 °F - 18.0 °F 71% 30.28 in 9.0 mi Calm Calm - N/A   Clear
3:51 AM 26.1 °F - 15.1 °F 63% 30.27 in 8.0 mi Calm Calm - N/A   Clear
4:51 AM 23.0 °F - 12.9 °F 65% 30.28 in 8.0 mi Calm Calm - N/A   Clear
6:51 AM 21.9 °F - 12.0 °F 66% 30.30 in 8.0 mi Calm Calm - N/A   Clear
7:51 AM 19.9 °F - 12.9 °F 74% 30.33 in 7.0 mi Calm Calm - N/A   Clear
8:51 AM 24.1 °F - 14.0 °F 65% 30.33 in 7.0 mi Calm Calm - N/A   Clear
9:51 AM 34.0 °F 31.0 °F 17.1 °F 50% 30.31 in 7.0 mi SW 3.5 mph - N/A   Clear
10:51 AM 41.0 °F - 14.0 °F 33% 30.31 in 7.0 mi Calm Calm - N/A   Clear
11:51 AM 45.0 °F 41.8 °F 12.0 °F 26% 30.28 in 8.0 mi West 5.8 mph - N/A   Clear
12:51 PM 46.9 °F - 9.0 °F 21% 30.30 in 9.0 mi West 6.9 mph - N/A   Clear
2:51 PM 52.0 °F - 10.9 °F 19% 30.24 in 10.0 mi Variable 6.9 mph - N/A   Clear
5:51 PM 53.1 °F - 9.0 °F 17% 30.21 in 8.0 mi WNW 6.9 mph - N/A   Clear
6:51 PM 50.0 °F - 8.1 °F 18% 30.22 in 7.0 mi NNW 3.5 mph - N/A   Clear
7:51 PM 46.9 °F - 9.0 °F 21% 30.23 in 8.0 mi Variable 6.9 mph - N/A   Clear
8:51 PM 43.0 °F 40.3 °F 14.0 °F 31% 30.25 in 8.0 mi NNE 4.6 mph - N/A   Clear
9:51 PM 35.1 °F - 12.9 °F 40% 30.24 in 8.0 mi Calm Calm - N/A   Clear
10:51 PM 36.0 °F - 15.1 °F 43% 30.22 in 7.0 mi Calm Calm - N/A   Clear
11:51 PM 32.0 °F - 15.1 °F 50% 30.23 in 8.0 mi Calm Calm - N/A   Clear